Other Public Products
Issued by NWS Grand Forks, ND

Home | Current Version | Previous Version | Graphics & Text | Print | Product List | Glossary On
Versions: 1 2 3 4 5 6 7 8 9 10 11 12 13 14 15 16 17 18 19 20 21 22 23 24 25 26 27 28 29 30 31 32 33 34 35 36 37 38 39 40 41 42 43 44 45 46 47 48 49 50
000
FPUS83 KFGF 160031
OPUFGF
PRAIRIE TO PINES WEATHER ROUNDUP
NATIONAL WEATHER SERVICE EASTERN NORTH DAKOTA/GRAND FORKS ND
700 PM CDT TUE AUG 15 2017

 **SATELLITE DATA USED TO AUGMENT SKY COVER AT AUTOMATED STATIONS**
 *****  WEATHER ACROSS EASTERN NORTH DAKOTA  *****

CITY           SKY/WX    TMP DP  RH WIND       PRES   REMARKS
GRAND FORKS    LGT RAIN  72  62  71 S3        29.89S
6HR MIN TEMP:  72; 6HR MAX TEMP:  78; 6HR PCP: TRACE;

GRAND FORKS AF LGT RAIN  68  61  79 S5        29.90S
GRAND CITY NWS NOT AVBL
BUXTON           N/A     70  62  77 SE3         N/A
DEVILS LAKE    RAIN      63  62  97 E9        29.89F FOG
6HR MIN TEMP:  63; 6HR MAX TEMP:  71;

FARGO          FAIR      73  59  61 SE13      29.88F
6HR MIN TEMP:  72; 6HR MAX TEMP:  76;

WAHPETON ARPT  FAIR      68  55  64 SE6       29.87F
$$

 *****  WEATHER ACROSS CENTRAL AND WESTERN NORTH DAKOTA  *****

CITY           SKY/WX    TMP DP  RH WIND       PRES   REMARKS
JAMESTOWN      CLOUDY    67  64  90 SE7       29.83F
6HR MIN TEMP:  66; 6HR MAX TEMP:  71; 6HR PCP:  0.13;

BISMARCK       LGT RAIN  65  64  97 NE8       29.80F FOG
6HR MIN TEMP:  65; 6HR MAX TEMP:  71; 6HR PCP:  0.81;

MINOT          CLOUDY    66  62  87 SE8       29.85F
6HR MIN TEMP:  66; 6HR MAX TEMP:  68; 6HR PCP: TRACE;

MINOT AFB      PTSUNNY   66  62  89 SE10      29.84F
6HR MIN TEMP:  64; 6HR MAX TEMP:  67;

GARRISON         N/A     63  62  97 E7        29.85F
6HR MIN TEMP:  62; 6HR MAX TEMP:  64; 6HR PCP:  0.45;

WILLISTON      FAIR      73  60  63 S5        29.84S
6HR MIN TEMP:  71; 6HR MAX TEMP:  75;

DICKINSON      LGT RAIN  63  62  97 NE8       29.85F
6HR MIN TEMP:  62; 6HR MAX TEMP:  68; 6HR PCP:  0.43;

HETTINGER      FAIR      66  61  84 N10       29.86S
6HR MIN TEMP:  63; 6HR MAX TEMP:  70; 6HR PCP:  0.45;

$$

 *****  OTHER OBSERVATIONS NORTHEAST NORTH DAKOTA  *****

CITY           SKY/WX    TMP DP  RH WIND       PRES   REMARKS
WALHALLA       FAIR      68  66  94 SE6       29.89S
LANGDON        MOCLDY    64  64 100 SE8       29.91F
CAVALIER       FAIR      70  61  73 SE6       29.89F
GRAFTON        FAIR      70  63  78 S6        29.92S
CANDO          MOCLDY    63  63 100 E7        29.90F FOG
FORT TOTTEN      N/A     63  62  97 E5        29.95S
ROLLA          FAIR      63  63 100 SE7       29.89F
RUGBY          FAIR      63  63 100 E7        29.86F
 ***** THE ABOVE OBSERVATIONS ARE NON NWS ARE NOT QUALITY
        CONTROLLED AND MAY MIS-REPORT RAIN FOR SNOW...
$$

 *****  OTHER OBSERVATIONS SOUTHEAST NORTH DAKOTA *****

CITY           SKY/WX    TMP DP  RH WIND       PRES   REMARKS
COOPERSTOWN    LGT RAIN  64  64 100 E9        29.87F
VALLEY CITY      N/A     68  66  94 SE12      29.86F
OAKES          NOT AVBL
GWINNER        PTCLDY    70  63  78 SE12      29.83F
SHEYENNE NWR     N/A     71  62  71 SE13      29.95S
BUFFALO          N/A     68  55  62 W10         N/A
WYNDMERE       NOT AVBL
 ***** THE ABOVE OBSERVATIONS ARE NON NWS ARE NOT QUALITY
       CONTROLLED AND MAY MIS-REPORT RAIN FOR SNOW...
$$

  *****  WEATHER ACROSS NORTHERN MINNESOTA  *****

CITY           SKY/WX    TMP DP  RH WIND       PRES   REMARKS
FLAG ISLAND    PTSUNNY   75  61  60 CALM      29.90F
WARROAD        FAIR      73  66  78 SE3       29.93R
ROSEAU         FAIR      75  64  69 S5        29.92S
HALLOCK        CLOUDY    73  63  68 S5        29.90S
THF RVR FALLS  PTSUNNY   72  59  63 S3        29.93S
6HR MIN TEMP:  72; 6HR MAX TEMP:  79; 6HR PCP: TRACE;

HALSTAD          N/A     69  61  74 SE5         N/A
FOSSTON        FAIR      72  61  68 SE6       29.93F
BAUDETTE       CLOUDY    74  59  59 SE9       29.93R
6HR MIN TEMP:  74; 6HR MAX TEMP:  80;

WASKISH        FAIR      73  61  64 CALM      29.94S
CROOKSTON      CLOUDY    72  59  64 S5        29.91S
$$
  *****  WEATHER ACROSS CENTRAL AND WEST MINNESOTA  *****

CITY           SKY/WX    TMP DP  RH WIND       PRES   REMARKS
BEMIDJI        FAIR      72  58  61 S7        29.94F
PARK RAPIDS    FAIR      73  59  61 SE6       29.94F
6HR MIN TEMP:  72; 6HR MAX TEMP:  78; 6HR PCP: TRACE;

WADENA         FAIR      70  61  73 SE7       29.93F
DETROIT LAKES  FAIR      70  59  68 SE9       29.93F
MOORHEAD       FAIR      72  59  64 SE7       29.88F
FERGUS FALLS   FAIR      70  57  64 SE9       29.89F
ELBOW LAKE     CLOUDY    70  60  71 SE7       29.90F
MORRIS MN      FAIR      70  63  78 SE8       29.88F
STAPLES        PTSUNNY   70  57  64 CALM      29.94F
WHEATON        FAIR      70  59  68 E13       29.86F
$$
  *****  WEATHER ELSEWHERE ACROSS MINNESOTA  *****

CITY           SKY/WX    TMP DP  RH WIND       PRES   REMARKS
DULUTH         FAIR      67  59  75 E8        30.00S
6HR MIN TEMP:  67; 6HR MAX TEMP:  71;

INTRNTL FALLS  FAIR      74  57  55 SE8       29.94S
6HR MIN TEMP:  74; 6HR MAX TEMP:  80;

ELY            FAIR      72  54  53 S7        30.01R
CLOQUET        FAIR      66  57  72 E7        30.00S
BRAINERD       FAIR      71  60  68 SE5       29.96F
6HR MIN TEMP:  71; 6HR MAX TEMP:  76;

HIBBING        FAIR      70  56  61 S5        29.98R
6HR MIN TEMP:  69; 6HR MAX TEMP:  78;

ALEXANDRIA     CLOUDY    69  58  67 SE10      29.94F
6HR MIN TEMP:  69; 6HR MAX TEMP:  74; 6HR PCP: TRACE;

SAINT CLOUD    FAIR      72  59  63 E5        29.94F
6HR MIN TEMP:  72; 6HR MAX TEMP:  78;

MINNEAPOLIS    CLOUDY    73  59  61 SE9       29.94F
6HR MIN TEMP:  72; 6HR MAX TEMP:  78;

$$

  *****  WEATHER ACROSS SOUTH DAKOTA  *****

CITY           SKY/WX    TMP DP  RH WIND       PRES   REMARKS
SIOUX FALLS    CLOUDY    68  67  96 E7        29.83F
6HR MIN TEMP:  67; 6HR MAX TEMP:  75; 6HR PCP:  0.08;

BROOKINGS      PTSUNNY   68  63  83 E14       29.85F
WATERTOWN      FAIR      69  62  78 E8        29.85F
6HR MIN TEMP:  69; 6HR MAX TEMP:  74;

HURON          CLOUDY    71  64  78 SE14      29.79F
6HR MIN TEMP:  71; 6HR MAX TEMP:  76;

SISSETON         N/A     71  63  75 SE12      29.84F
ABERDEEN       FAIR      73  65  75 SE10      29.81F
6HR MIN TEMP:  70; 6HR MAX TEMP:  74; 6HR PCP:  0.01;

MITCHELL       FAIR      68  65  90 E10       29.79F
PIERRE         TSTM      74  64  71 SE12      29.77R
6HR MIN TEMP:  69; 6HR MAX TEMP:  79; 6HR PCP:  0.16;

MOBRIDGE       HVY RAIN  69  67  93 W9        29.77S VSB 1/2
RAPID CITY     FAIR      70  59  68 N16       29.86F
6HR MIN TEMP:  68; 6HR MAX TEMP:  75; 6HR PCP: TRACE;

$$

  *****  SOME WEATHER IN NEARBY STATES *****

CITY           SKY/WX    TMP DP  RH WIND       PRES   REMARKS
GLASGOW MT     FAIR      81  36  19 NW12      29.83R
6HR MIN TEMP:  74; 6HR MAX TEMP:  83;

GREAT FALLS MT FAIR      80  28  15 N7        29.86F
6HR MIN TEMP:  68; 6HR MAX TEMP:  82;

CHEYENNE WY    FAIR      64  46  52 NW26G38   30.02R
6HR MIN TEMP:  58; 6HR MAX TEMP:  79; 6HR PCP: TRACE;

SCOTTSBLUFF NE PTSUNNY   67  56  67 N17G30    29.89R
6HR MIN TEMP:  67; 6HR MAX TEMP:  84; 6HR PCP: TRACE;

OMAHA NE       FAIR      83  71  67 E10       29.81R
6HR MIN TEMP:  78; 6HR MAX TEMP:  88;

DES MOINES IA  FAIR      76  69  79 NE12      29.86F
6HR MIN TEMP:  69; 6HR MAX TEMP:  79; 6HR PCP:  0.29;

DAVENPORT IA   FAIR      75  68  78 NE8       29.93R
6HR MIN TEMP:  75; 6HR MAX TEMP:  82;

CHICAGO IL     CLOUDY    73  61  65 NE10      29.95S
6HR MIN TEMP:  73; 6HR MAX TEMP:  84;

EAU CLAIRE WI  FAIR      73  58  59 SE6       29.97S
6HR MIN TEMP:  71; 6HR MAX TEMP:  77;

LA CROSSE WI   FAIR      75  61  61 SE5       29.95S
6HR MIN TEMP:  73; 6HR MAX TEMP:  79;

$$

  *****  SOME NATIONAL WEATHER *****

CITY           SKY/WX    TMP DP  RH WIND       PRES   REMARKS
LA GUARDIA NY  CLOUDY    73  71  93 S8        29.89S
6HR MIN TEMP:  72; 6HR MAX TEMP:  75; 6HR PCP:  0.11;



USA.gov is the U.S. government's official web portal to all federal, state and local government web resources and services.